Погода в Лаптево

Россия / Новгородская область     58°37′30″N   35°16′32″E
темп.,
°C
ветер,
м/с
пор.,
м/с
влажн.,
%
обл.,
%
осадки,
мм/ч
давл.,
гПа
погр.,
м
12 мая, ср
ср1200:00+10ююв26850 0.0 1027102
03:00+8ююв23890 0.0 102865
06:00+10ююв24800 0.0 1028116
09:00+17юв23602 0.0 1027441
12:00+21юв33520 0.0 10261079
15:00+23юв34455 0.0 10241644
18:00+22вюв35515 0.0 10221456
21:00+15в387712 0.0 1022150
13 мая, чт
чт1300:00+13в27945 0.1 1021147
03:00+13вюв3119237 0.1 1020410
06:00+12юв4109473 0.0 1020493
09:00+15юв487648 0.1 10201023
12:00+20ююв474512 0.0 10191824
15:00+21юв46419 0.0 10171829
18:00+19в3553100 0.1 10141386
21:00+14вюв3796100 5.1 1012460
14 мая, пт
пт1400:00+12ю389582 0.4 1013487
03:00+11ю3995100 1.1 1014488
06:00+10ю389459 0.4 1015424
09:00+14ююз477044 0.4 1016830
12:00+17ю454888 0.0 10161506
15:00+18ю4546100 0.0 10151585
18:00+17ю255723 0.0 10151069
21:00+12в23785 0.0 101445
15 мая, сб
сб1500:00+11в2790100 0.0 1013135
03:00+10в3897100 0.0 1012164
06:00+12в3895100 0.1 1010252
09:00+17вюв3680100 0.4 1009533
12:00+21юв4663100 0.0 10081115
15:00+21ююв356854 2.8 1007971
18:00+20ю357336 0.9 1005735
21:00+15ююз2691100 2.3 100596
16 мая, вс
вс1600:00+13юз269598 0.4 1005130
03:00+12юз2797100 0.4 1006172
06:00+12юз3996100 0.0 1006369
09:00+16юз5881100 0.0 1007747
12:00+18зюз576694 0.2 10081250
15:00+17з467640 0.7 1010974
18:00+16з478770 1.2 1010683
21:00+12з26968 1.3 1012161